Regional Weather Roundup
Issued by NWS

Home | Current Version | Previous Version | Graphics & Text | Print | Product List | Glossary On
Versions: 1 2 3 4 5 6 7 8 9 10 11 12 13 14 15 16 17 18 19 20 21 22 23 24 25 26 27 28 29 30 31 32 33 34 35 36 37 38 39 40 41 42 43 44 45 46 47 48 49 50
000
ASUS45 KCYS 231810
RWRWY

WYOMING REGIONAL WEATHER ROUNDUP
NATIONAL WEATHER SERVICE CHEYENNE WY
1200 PM MDT WED MAY 23 2018

NOTE:  "FAIR" INDICATES FEW OR NO CLOUDS BELOW 12,000 FEET
WITH NO SIGNIFICANT WEATHER AND/OR OBSTRUCTIONS TO VISIBILITY.

WYZ001-231900-
YELLOWSTONE NATIONAL PARK

CITY           SKY/WX    TMP DP  RH WIND       PRES   REMARKS
LK YELLOWSTONE   N/A     33  32  96 CALM      30.09R
6HR MIN TEMP:  32; 6HR MAX TEMP:  39; 6HR PCP:  0.54;

W YELLOWSTONE  NOT AVBL

$$
WYZ002>013-054>058-071-098>099-231900-
NORTHERN WYOMING

CITY           SKY/WX    TMP DP  RH WIND       PRES   REMARKS
JACKSON        LGT RAIN  45  42  89 S13       30.06R
CODY           FAIR      57  47  69 S8        29.95R
GREYBULL       PTSUNNY   64  54  69 SE10      29.90F
6HR MIN TEMP:  55; 6HR MAX TEMP:  65; 6HR PCP: TRACE;

WORLAND        FAIR      65  52  62 VRB5      29.90F
6HR MIN TEMP:  53; 6HR MAX TEMP:  65; 6HR PCP:  0.01;

SHERIDAN       PTSUNNY   67  55  65 SE3       29.88F
6HR MIN TEMP:  54; 6HR MAX TEMP:  68;

BUFFALO        FAIR      71  46  40 S24G33    29.91F
6HR MIN TEMP:  51; 6HR MAX TEMP:  71;

GILLETTE       FAIR      71  52  50 S15G22    29.91F
6HR MIN TEMP:  56; 6HR MAX TEMP:  71;

NEWCASTLE      FAIR      64  52  63 S8        29.99S

$$
WYZ014>020-022>026-101>103-231900-
CENTRAL WYOMING

CITY           SKY/WX    TMP DP  RH WIND       PRES   REMARKS
BIG PINEY      LGT RAIN  49  43  80 NW15G24   30.06S
6HR MIN TEMP:  41; 6HR MAX TEMP:  59;

PINEDALE       LGT RAIN  52  39  62 SW7G21    30.07F
DUBOIS         LGT RAIN  48  41  76 CALM      30.02S
LANDER         FAIR      66  46  48 NW13G28   29.93F
6HR MIN TEMP:  43; 6HR MAX TEMP:  67;

RIVERTON       FAIR      64  48  56 S8        29.96S
6HR MIN TEMP:  49; 6HR MAX TEMP:  64;

CASPER         FAIR      68  47  46 MISG      29.98S
6HR MIN TEMP:  49; 6HR MAX TEMP:  68;

DOUGLAS        FAIR      68  51  54 SE14      29.99S
6HR MIN TEMP:  46; 6HR MAX TEMP:  69;


$$
WYZ021-027>030-104>119-231900-
SOUTHERN WYOMING

CITY           SKY/WX    TMP DP  RH WIND       PRES   REMARKS
EVANSTON       FAIR      61  39  44 SW18G25   30.06F
6HR MIN TEMP:  40; 6HR MAX TEMP:  61;

KEMMERER       FAIR      57  34  41 SW18      30.07S
FORT BRIDGER   LGT RAIN  56  43  62 CALM      30.09S
ROCK SPRINGS   PTSUNNY   56  43  61 W5        30.06S
6HR MIN TEMP:  39; 6HR MAX TEMP:  59;

DIXON          MOCLDY    66  39  37 W6        30.08F
RAWLINS        FAIR      70  34  26 SW14G22   30.04F
6HR MIN TEMP:  34; 6HR MAX TEMP:  70;

SARATOGA       MOCLDY    64  36  34 S8        30.07S
LARAMIE        FAIR      67  31  26 S21G26    30.06F
6HR MIN TEMP:  35; 6HR MAX TEMP:  69;

CHEYENNE       FAIR      69  51  52 S12       30.05S
6HR MIN TEMP:  45; 6HR MAX TEMP:  69;

TORRINGTON     FAIR      70  58  65 SE8       29.96F
6HR MIN TEMP:  48; 6HR MAX TEMP:  70;

PINE BLUFFS    FAIR      68  52  56 S5        30.03S

$$



USA.gov is the U.S. government's official web portal to all federal, state and local government web resources and services.